Location: Borojevi?i
(45.2972°N, 16.4017°E)
Time: 14:27:40
(UTC+00:00)

Daily predictions for brighter satellites

Satellite Brightness Start Highest point End
(mag) Time Altitude Azimuth Time Altitude Azimuth Time Altitude Azimuth
Cosmos 1709 Rocket 4.0 17:46:06 10° N 17:52:19 85° E 17:58:25 10° S
SeaSat 1 2.6 17:47:57 10° NNE 17:52:54 84° WNW 17:57:50 10° SSW
Cosmos 1544 Rocket 4.1 17:50:52 10° SSW 17:55:16 68° W 17:59:43 10° N
STARLINK-1097 4.3 17:54:06 10° WNW 17:58:08 52° SW 18:02:10 10° SE
Cosmos 1626 2.9 17:54:38 10° NNW 17:58:17 57° W 18:01:55 10° S
CZ-4 R/B 3.5 17:57:19 10° SSW 18:00:43 30° W 18:04:09 10° NW
Cosmos 1825 Rocket 4.5 17:58:52 10° NNE 18:02:45 29° ENE 18:06:34 10° SE
STARLINK-1099 4.4 17:59:07 10° WNW 18:03:06 48° SW 18:07:05 10° SE
Cosmos 292 Rocket 3.8 17:59:53 10° NNW 18:04:42 76° ENE 18:09:31 10° SSE
SL-8 R/B 3.8 18:01:36 10° WNW 18:06:24 81° SSW 18:11:11 10° ESE
BREEZE-M DEB (TANK) 4.5 17:58:26 10° WNW 18:06:58 57° N 18:10:08 10° E
Cosmos 1943 Rocket 2.3 18:02:14 10° NNW 18:07:48 85° WSW 18:13:23 10° SSE
Cosmos 2074 Rocket 4.3 18:02:09 10° N 18:08:12 47° ENE 18:14:14 10° SSE
COSMOS 2455 4.4 18:03:58 10° NNW 18:08:32 22° NE 18:13:05 10° E
Cosmos 2369 Rocket 2.2 18:03:45 10° NNW 18:09:28 77° ENE 18:15:07 10° SSE
IRS-1A Rocket 4.3 18:04:50 10° SSE 18:10:30 73° ENE 18:16:20 10° N
SPOT 3 Rocket 4.3 18:06:10 10° SE 18:10:48 34° ENE 18:15:28 10° N
Cosmos 1758 Rocket 3.8 18:11:25 10° N 18:15:37 46° ENE 18:19:46 10° SSE
IRIDIUM 106 4.4 18:10:39 10° N 18:15:48 56° E 18:20:55 10° SSE
Abrixas rocket 2.8 18:14:56 10° W 18:17:48 45° N 18:20:41 10° ENE
Cosmos 407 Rocket 4.5 18:14:21 10° SSE 18:18:23 24° E 18:22:26 10° NE
CZ-2C R/B 4.4 18:14:13 10° NNE 18:18:28 33° E 18:22:37 10° SSE
Cosmos 1953 2.2 18:17:26 10° S 18:21:23 75° E 18:25:23 10° NNE
Cosmos 1992 Rocket 4.0 18:16:36 10° NNW 18:21:50 88° WSW 18:27:02 10° SSE
Cosmos 2228 3.6 18:18:44 10° SSE 18:22:37 35° E 18:26:34 10° NNE
Cosmos 1437 2.8 18:20:04 10° N 18:23:01 46° ENE 18:25:53 10° SSE
Cosmos 1953 Rocket 4.4 18:19:03 10° N 18:23:07 33° ENE 18:26:49 12° SE
Cosmos 1606 Rocket 4.0 18:20:48 10° SSE 18:24:55 40° E 18:29:06 10° NNE
Cosmos 1818 3.7 18:19:55 10° SSW 18:25:11 54° ESE 18:30:29 10° NE
Cosmos 1908 4.0 18:24:09 10° SSE 18:27:32 30° E 18:30:58 10° NNE
Cosmos 2263 4.2 18:23:48 10° NNW 18:29:27 80° ENE 18:35:03 10° SSE
Cosmos 1470 4.4 18:28:03 10° SW 18:31:41 37° WNW 18:35:21 10° N
BREEZE M DEB (TANK) 4.4 18:19:17 10° SW 18:31:48 50° SSE 18:35:23 13° ENE
SL-08 RB Rocket 3.7 18:28:43 10° SSE 18:33:11 62° ENE 18:37:44 10° N
Cosmos 1943 3.1 18:27:58 10° SSW 18:33:36 74° ESE 18:39:18 10° NNE
CZ-2C R/B 3.0 18:32:51 10° SSE 18:37:47 82° WSW 18:42:35 10° NNW
Aureole 2 Rocket 3.9 18:34:40 10° NW 18:37:54 36° WSW 18:41:02 10° S
BREEZE-M DEB (TANK) 2.2 18:33:24 10° WSW 18:39:08 74° NNW 18:41:06 15° ENE
Cosmos 1461 4.2 18:37:01 10° NNW 18:41:00 30° NE 18:43:27 19° E
H-2A R/B 2.6 18:42:23 10° S 18:47:34 61° W 18:52:38 10° NNW
NOSS 3-4 (A) 4.0 18:46:50 10° NW 18:53:45 64° NE 18:58:54 22° SE
NOSS 3-4 (C) 4.0 18:46:56 10° NW 18:53:51 64° NE 18:58:59 22° ESE
Cosmos 1656 Rocket 3.6 18:49:45 10° NNW 18:55:27 85° ENE 18:59:39 18° SSE
CZ-2C R/B 2.7 18:53:10 10° NNE 18:58:13 50° E 19:03:15 10° S
Resurs 1-3 3.5 18:55:38 20° SSE 18:58:37 69° ENE 19:03:00 10° N
STARLINK-1228 4.4 18:57:05 10° NW 18:59:32 24° NNE 19:00:22 21° NE
Aureole 1 Rocket 4.2 18:51:54 10° S 18:59:35 64° ESE 19:05:43 10° NNE
MetOp-A 4.1 18:56:24 13° SSE 19:01:15 83° ENE 19:06:38 10° NNW
Cosmos 1726 3.2 18:58:26 10° SSW 19:02:03 48° WNW 19:05:41 10° N
ARGOS 3.8 18:58:05 10° S 19:03:21 54° W 19:08:38 10° NNW
SJ-6B 3.9 19:02:57 10° S 19:06:55 47° W 19:10:56 10° NNW
Cosmos 2184 Rocket 4.3 19:00:51 10° NNW 19:07:06 68° W 19:13:15 10° S
STARLINK-60 3.0 19:04:36 10° SW 19:07:49 55° SE 19:07:54 54° SE
ISS -1.2 19:06:41 10° W 19:08:40 15° SW 19:10:16 11° SSW
BREEZE M DEB (TANK) 3.2 19:07:44 10° SSW 19:10:42 37° SE 19:17:56 10° ENE
USA 186 4.2 19:09:18 10° SSW 19:12:03 23° W 19:14:45 10° NW
STARLINK-1227 4.5 19:09:54 10° NW 19:12:38 26° NNE 19:13:21 24° NE
STARLINK-1218 4.5 19:10:25 10° NW 19:13:07 26° NNE 19:13:47 24° NE
STARLINK-1226 4.5 19:10:50 10° NW 19:13:33 26° NNE 19:14:12 24° NE
STARLINK-1215 4.5 19:11:45 10° NW 19:14:28 26° NNE 19:15:04 24° NE
STARLINK-1231 4.4 19:12:12 10° NW 19:14:55 26° NNE 19:15:30 24° NE
STARLINK-67 3.8 19:12:37 10° NW 19:14:43 32° N 19:14:43 32° N
DMSP B5D2-2 4.0 19:10:11 10° NNE 19:15:27 83° ESE 19:20:41 10° SSW
STARLINK-1232 4.4 19:13:06 10° NW 19:15:49 26° NNE 19:16:22 25° NE
STARLINK-1217 4.4 19:13:33 10° NW 19:16:17 26° NNE 19:16:48 25° NE
Terra 3.8 19:16:09 13° ENE 19:16:17 13° ENE 19:18:29 10° NNE
STARLINK-1208 4.4 19:13:57 10° NW 19:16:43 27° NNE 19:17:15 25° NE
STARLINK-1229 4.4 19:14:27 10° NW 19:17:10 27° NNE 19:17:39 25° NE
STARLINK-1271 4.4 19:14:54 10° NW 19:17:38 27° NNE 19:18:06 26° NNE
STARLINK-1234 4.1 19:14:59 10° NW 19:17:44 30° NNE 19:17:59 29° NNE
STARLINK-1270 4.4 19:15:22 10° NW 19:18:06 27° NNE 19:18:33 26° NNE
STARLINK-1154 4.4 19:15:48 10° NW 19:18:31 27° NNE 19:18:57 26° NNE
STARLINK-1197 4.4 19:16:42 10° NW 19:19:27 27° NNE 19:19:50 26° NNE
STARLINK-1189 4.4 19:17:09 10° NW 19:19:54 27° NNE 19:20:16 26° NNE
Cosmos 2058 Rocket 3.0 19:16:33 16° S 19:20:12 80° E 19:24:44 10° N
STARLINK-1198 4.4 19:17:36 10° NW 19:20:20 27° NNE 19:20:42 27° NNE
STARLINK-1209 4.1 19:17:52 10° NW 19:20:35 31° NNE 19:20:37 31° NNE
STARLINK-1188 4.4 19:18:03 10° NW 19:20:48 27° NNE 19:21:08 27° NNE
STARLINK-1235 4.2 19:18:40 10° NW 19:21:32 31° NNE 19:21:46 31° NNE
STARLINK-1187 4.3 19:19:05 10° NW 19:21:56 30° NNE 19:22:12 29° NNE
STARLINK-1199 4.3 19:19:58 10° NW 19:22:47 28° NNE 19:23:03 28° NNE
STARLINK-1191 4.3 19:20:26 10° NW 19:23:14 28° NNE 19:23:29 28° NNE
MOS 1 Rocket 3.6 19:17:54 10° NNE 19:23:18 88° ESE 19:28:44 10° SSW
Resurs 01 Rocket 1.5 19:21:42 36° SSE 19:23:29 87° ENE 19:27:56 10° NNW
STARLINK-1210 4.3 19:20:53 10° NW 19:23:41 28° NNE 19:23:55 28° NNE
USA 234 3.2 19:17:34 10° ENE 19:24:01 58° SE 19:30:26 10° SW
STARLINK-1221 4.3 19:21:20 10° NW 19:24:09 29° NNE 19:24:21 28° NNE
STARLINK-1219 4.3 19:21:47 10° NW 19:24:35 29° NNE 19:24:47 28° NNE
STARLINK-1222 4.3 19:22:14 10° NW 19:25:03 29° NNE 19:25:13 29° NNE
STARLINK-1211 4.3 19:22:41 10° NW 19:25:30 29° NNE 19:25:39 29° NNE
STARLINK-1214 4.3 19:23:08 10° NW 19:25:57 29° NNE 19:26:05 29° NNE
ATLAS 2AS CENTAUR R/B 2.8 19:18:37 10° NW 19:26:15 84° SW 19:29:59 31° SSE
STARLINK-1245 4.3 19:23:37 10° NW 19:26:25 29° NNE 19:26:30 29° NNE
STARLINK-1238 4.3 19:24:02 10° NW 19:26:52 29° NNE 19:26:57 29° NNE
STARLINK-1205 4.3 19:24:58 10° NW 19:27:46 29° NNE 19:27:48 29° NNE
STARLINK-1204 4.3 19:25:25 10° NW 19:28:14 29° NNE 19:28:15 29° NNE
Cosmos 2154 Rocket 4.2 19:23:02 10° NNW 19:29:23 72° W 19:34:52 14° S
Cosmos 2181 Rocket 4.2 19:27:29 35° SE 19:29:39 48° E 19:35:34 10° NNE
Cosmos 1190 Rocket 3.9 19:24:54 10° SSW 19:30:12 85° ESE 19:35:33 10° NNE
Nadezhda 1 Rocket 4.3 19:24:46 10° SSW 19:31:08 68° W 19:37:30 10° N
Cosmos 1140 Rocket 3.3 19:26:23 10° SSW 19:31:33 76° ESE 19:36:44 10° NNE
Iridium 4 Rocket 4.3 19:28:15 10° NNE 19:30:54 25° NE 19:30:54 25° NE
USA 245 4.5 19:30:56 41° ESE 19:32:36 55° ENE 19:38:42 10° N
Spot 2 Rocket 3.6 19:31:32 45° ESE 19:32:43 57° ENE 19:37:43 10° N
Cosmos 962 Rocket 4.3 19:26:37 10° N 19:32:48 79° E 19:35:47 32° SSE
SL-4 R/B 2.0 19:29:52 10° WSW 19:33:15 59° NNW 19:33:43 52° NNE
Cosmos 1340 Rocket 3.0 19:32:48 21° SSW 19:35:23 70° WNW 19:39:26 10° N
STARLINK-1201 4.3 19:33:34 10° NW 19:36:24 32° NNE 19:36:24 32° NNE
SL-8 Rocket 4.1 19:30:32 10° N 19:36:46 58° ENE 19:38:40 42° SE
ATLAS 5 CENTAUR R/B 1.3 19:33:38 10° SSW 19:37:46 80° SE 19:42:24 10° NE
SL-24 R/B - RUBIN 2 4.2 19:35:44 10° SW 19:41:18 88° NW 19:47:38 10° NE
Cosmos 2366 rocket 4.1 19:42:18 10° N 19:48:21 55° ENE 19:49:24 49° ESE
In-Cosmos 22 Rocket 4.3 19:43:45 10° N 19:49:31 58° ENE 19:50:20 53° ESE
Cosmos 1300 3.1 19:50:48 58° N 19:50:48 58° N 19:53:56 10° N
IGS 5A 3.9 19:53:17 50° NNE 19:53:17 50° NNE 19:56:43 10° N
Abrixas rocket 4.1 19:50:44 10° WNW 19:52:20 27° NW 19:52:20 27° NW
COSMOS 2455 2.7 19:49:17 10° NNW 19:55:21 86° ENE 19:56:39 58° SE
Cosmos 921 Rocket 3.2 19:52:59 10° NNW 19:57:07 62° WSW 19:57:12 62° WSW
Cosmos 1959 Rocket 4.5 19:50:50 10° N 19:57:08 67° E 19:58:18 56° SE
Cosmos 676 Rocket 3.9 19:56:21 37° SSW 19:58:31 89° SE 20:03:49 10° NNE
Cosmos 407 Rocket 4.4 19:55:08 10° SW 20:00:04 46° WNW 20:05:01 10° N
ERS-1 Rocket 3.2 20:07:39 57° NE 20:07:39 57° NE 20:12:13 10° N
Meteor 2-1 Rocket 4.3 20:11:13 64° E 20:11:13 64° E 20:16:56 10° NNE
Landsat 7 3.8 20:11:37 81° NNW 20:11:37 81° NNW 20:16:12 10° NNW
ATLAS CENTAUR R/B 3.9 20:10:07 10° N 20:11:25 12° NNE 20:11:25 12° NNE
SPOT 1/Viking Rocket 3.4 20:14:31 86° ENE 20:14:31 86° ENE 20:19:47 10° NNW
Cosmos 1461 4.0 20:15:55 10° NW 20:19:51 42° WSW 20:19:51 42° WSW
Cosmos 1954 Rocket 4.4 20:21:02 34° SW 20:23:08 60° WNW 20:28:19 10° NNE
SL-08 R/B 4.3 20:22:30 10° N 20:28:38 76° ENE 20:28:38 76° ENE
Cosmos 1821 Rocket 4.4 20:24:13 10° N 20:29:53 48° ENE 20:29:53 48° ENE
CZ-4C R/B 4.0 20:28:41 10° NNW 20:34:49 33° NE 20:37:07 28° ENE
SPOT 5 3.8 20:36:47 39° NNW 20:36:47 39° NNW 20:39:33 10° NNW
Cosmos 1697 Rocket 3.7 20:30:48 10° NNW 20:35:27 36° NE 20:35:27 36° NE
Cosmos 1763 Rocket 4.1 20:45:40 10° NNW 20:49:35 52° NNW 20:49:35 52° NNW
Terra 2.9 20:55:01 41° NNW 20:55:01 41° NNW 20:58:07 10° NNW
Cosmos 1980 Rocket 3.5 20:59:12 10° N 21:03:10 31° NNE 21:03:10 31° NNE
USA 234 3.8 21:00:40 10° NE 21:07:00 54° NNW 21:13:19 10° WSW
Cosmos 1656 4.4 21:06:23 10° NNW 21:10:37 51° NW 21:10:37 51° NW
ATLAS 5 CENTAUR R/B 4.1 21:19:46 10° WNW 21:23:04 20° NNW 21:26:40 10° NNE
Cosmos 2082 Rocket 4.2 21:33:29 19° NE 21:33:29 19° NE 21:35:01 10° NE
Mayak 1.5 21:29:50 10° N 21:30:34 15° N 21:30:34 15° N
COSMOS 2406 4.4 21:45:30 38° NNW 21:45:30 38° NNW 21:49:27 10° NNE
Cosmos 1833 Rocket 4.3 21:47:50 29° NNE 21:47:50 29° NNE 21:50:33 10° NNE
CZ-4C R/B 3.4 22:16:55 10° NW 22:22:18 56° NW 22:22:18 56° NW
SL-16 R/B 3.8 22:29:20 10° NNW 22:32:21 30° N 22:32:21 30° N
Cosmos 2360 Rocket 4.1 22:36:13 10° N 22:39:34 25° NNE 22:39:34 25° NNE
Cosmos 2322 Rocket 3.9 22:39:15 10° NNW 22:42:09 29° N 22:42:09 29° N
Cosmos 1980 Rocket 4.3 22:43:08 10° NW 22:44:56 20° NW 22:44:56 20° NW
Cosmos 2082 Rocket 4.1 23:15:18 25° NNW 23:15:18 25° NNW 23:18:44 10° N
SL-16 R/B 3.9 23:29:18 32° ENE 23:29:18 32° ENE 23:34:31 10° N
Cosmos 2219 Rocket 3.9 23:36:01 10° N 23:40:10 29° NE 23:40:10 29° NE
COSMOS 2428 4.2 23:48:20 10° NNW 23:52:47 33° NE 23:52:47 33° NE
